Time,TemperatureF,DewpointF,PressureIn,WindDirection,WindDirectionDegrees,WindSpeedMPH,WindSpeedGustMPH,Humidity,HourlyPrecipIn,Conditions,Clouds,dailyrainin,SoftwareType,DateUTC
2013-11-02 00:00:00,42.6,34.6,30.14,NNE,24,0.0,0.0,73,0.00,,---,0.00,VWS V14.01,2013-11-02 05:00:00,
2013-11-02 00:02:00,42.6,34.6,30.14,NNE,24,0.0,0.0,73,0.00,,---,0.00,VWS V14.01,2013-11-02 05:02:00,
2013-11-02 00:05:00,42.1,34.4,30.14,NNE,24,0.0,0.0,74,0.00,,---,0.00,VWS V14.01,2013-11-02 05:05:00,
2013-11-02 00:08:00,41.8,34.1,30.14,NNE,24,0.0,0.0,74,0.00,,---,0.00,VWS V14.01,2013-11-02 05:08:00,
2013-11-02 00:11:00,41.6,34.3,30.14,NNE,24,0.0,0.0,75,0.00,,---,0.00,VWS V14.01,2013-11-02 05:11:00,
2013-11-02 00:14:00,41.3,34.3,30.14,NNE,24,0.0,0.0,76,0.00,,---,0.00,VWS V14.01,2013-11-02 05:14:00,
2013-11-02 00:17:00,41.0,34.3,30.14,NNE,24,0.0,2.0,77,0.00,,---,0.00,VWS V14.01,2013-11-02 05:17:00,
2013-11-02 00:20:00,40.6,34.0,30.14,NNE,24,1.0,2.0,77,0.00,,---,0.00,VWS V14.01,2013-11-02 05:20:00,
2013-11-02 00:23:00,40.5,34.2,30.14,NNE,24,0.0,2.0,78,0.00,,---,0.00,VWS V14.01,2013-11-02 05:23:00,
2013-11-02 00:26:00,40.3,34.3,30.14,NNE,24,0.0,2.0,79,0.00,,---,0.00,VWS V14.01,2013-11-02 05:26:00,
2013-11-02 00:29:00,40.3,34.6,30.14,NNE,24,0.0,2.0,80,0.00,,---,0.00,VWS V14.01,2013-11-02 05:29:00,
2013-11-02 00:30:00,40.2,34.5,30.14,NNE,24,0.0,2.0,80,0.00,,---,0.00,VWS V14.01,2013-11-02 05:30:00,
2013-11-02 00:32:00,40.2,34.5,30.14,NNE,24,0.0,0.0,80,0.00,,---,0.00,VWS V14.01,2013-11-02 05:32:00,
2013-11-02 00:35:00,40.2,34.5,30.14,NNE,24,0.0,0.0,80,0.00,,---,0.00,VWS V14.01,2013-11-02 05:35:00,
2013-11-02 00:38:00,40.0,34.0,30.14,NNE,24,0.0,1.0,79,0.00,,---,0.00,VWS V14.01,2013-11-02 05:38:00,
2013-11-02 00:41:00,39.8,33.8,30.14,NNE,24,0.0,1.0,79,0.00,,---,0.00,VWS V14.01,2013-11-02 05:41:00,
2013-11-02 00:44:00,39.6,34.0,30.14,NNE,24,0.0,1.0,80,0.00,,---,0.00,VWS V14.01,2013-11-02 05:44:00,
2013-11-02 00:47:00,39.4,34.1,30.14,NNE,24,0.0,1.0,81,0.00,,---,0.00,VWS V14.01,2013-11-02 05:47:00,
2013-11-02 00:50:00,39.2,33.9,30.15,NNE,24,0.0,1.0,81,0.00,,---,0.00,VWS V14.01,2013-11-02 05:50:00,
2013-11-02 00:56:00,39.0,34.0,30.15,NNE,24,0.0,1.0,82,0.00,,---,0.00,VWS V14.01,2013-11-02 05:56:00,
2013-11-02 01:00:00,39.1,34.1,30.15,NNE,24,0.0,1.0,82,0.00,,---,0.00,VWS V14.01,2013-11-02 06:00:00,
2013-11-02 01:02:00,39.1,34.1,30.15,NNE,24,0.0,0.0,82,0.00,,---,0.00,VWS V14.01,2013-11-02 06:02:00,
2013-11-02 01:05:00,39.2,34.2,30.15,NNE,24,0.0,0.0,82,0.00,,---,0.00,VWS V14.01,2013-11-02 06:05:00,
2013-11-02 01:11:00,39.2,34.2,30.16,NNE,24,0.0,0.0,82,0.00,,---,0.00,VWS V14.01,2013-11-02 06:11:00,
2013-11-02 01:14:00,39.2,34.2,30.16,NNE,24,0.0,0.0,82,0.00,,---,0.00,VWS V14.01,2013-11-02 06:14:00,
2013-11-02 01:17:00,39.3,34.3,30.16,NNE,24,0.0,0.0,82,0.00,,---,0.00,VWS V14.01,2013-11-02 06:17:00,
2013-11-02 01:26:00,39.2,34.2,30.16,East,80,1.0,3.0,82,0.00,,---,0.00,VWS V14.01,2013-11-02 06:26:00,
2013-11-02 01:30:00,39.4,34.7,30.16,SE,130,1.0,3.0,83,0.00,,---,0.00,VWS V14.01,2013-11-02 06:30:00,
2013-11-02 01:36:00,39.5,34.5,30.17,SE,130,0.0,2.0,82,0.00,,---,0.00,VWS V14.01,2013-11-02 06:36:00,
2013-11-02 01:39:00,39.4,34.4,30.17,SE,130,1.0,3.0,82,0.00,,---,0.00,VWS V14.01,2013-11-02 06:39:00,
2013-11-02 01:42:00,39.4,34.4,30.17,SE,130,2.0,3.0,82,0.00,,---,0.00,VWS V14.01,2013-11-02 06:42:00,
2013-11-02 01:45:00,39.4,34.4,30.17,SE,130,1.0,3.0,82,0.00,,---,0.00,VWS V14.01,2013-11-02 06:45:00,
2013-11-02 01:48:00,39.5,34.5,30.17,SE,130,0.0,3.0,82,0.00,,---,0.00,VWS V14.01,2013-11-02 06:48:00,
2013-11-02 01:51:00,39.5,34.5,30.17,SE,130,2.0,3.0,82,0.00,,---,0.00,VWS V14.01,2013-11-02 06:51:00,
2013-11-02 01:52:00,39.1,33.8,30.15,NNE,24,0.0,1.0,81,0.00,,---,0.00,VWS V14.01,2013-11-02 06:52:00,
2013-11-02 01:57:00,39.7,34.4,30.17,SE,130,0.0,3.0,81,0.00,,---,0.00,VWS V14.01,2013-11-02 06:57:00,
2013-11-02 01:58:00,39.1,34.1,30.15,NNE,24,0.0,1.0,82,0.00,,---,0.00,VWS V14.01,2013-11-02 06:58:00,
2013-11-02 02:00:00,39.8,34.5,30.17,SE,130,1.0,1.0,81,0.00,,---,0.00,VWS V14.01,2013-11-02 07:00:00,
2013-11-02 02:03:00,39.9,34.5,30.17,SE,130,3.0,3.0,81,0.00,,---,0.00,VWS V14.01,2013-11-02 07:03:00,
2013-11-02 02:06:00,40.0,34.7,30.17,SE,130,2.0,3.0,81,0.00,,---,0.00,VWS V14.01,2013-11-02 07:06:00,
2013-11-02 02:07:00,39.2,34.2,30.16,NNE,24,0.0,0.0,82,0.00,,---,0.00,VWS V14.01,2013-11-02 07:07:00,
2013-11-02 02:12:00,40.0,34.7,30.17,SE,130,0.0,3.0,81,0.00,,---,0.00,VWS V14.01,2013-11-02 07:12:00,
2013-11-02 02:18:00,39.8,34.1,30.17,SE,130,1.0,3.0,80,0.00,,---,0.00,VWS V14.01,2013-11-02 07:18:00,
2013-11-02 02:19:00,39.3,34.3,30.16,NNE,24,0.0,0.0,82,0.00,,---,0.00,VWS V14.01,2013-11-02 07:19:00,
2013-11-02 02:24:00,39.7,34.4,30.18,SE,130,0.0,3.0,81,0.00,,---,0.00,VWS V14.01,2013-11-02 07:24:00,
2013-11-02 02:27:00,39.8,34.8,30.18,SE,130,0.0,3.0,82,0.00,,---,0.00,VWS V14.01,2013-11-02 07:27:00,
2013-11-02 02:31:00,39.5,34.5,30.17,SE,130,1.0,2.0,82,0.00,,---,0.00,VWS V14.01,2013-11-02 07:31:00,
2013-11-02 02:36:00,40.1,34.8,30.17,SE,130,0.0,2.0,81,0.00,,---,0.00,VWS V14.01,2013-11-02 07:36:00,
2013-11-02 02:48:00,39.7,34.0,30.17,SE,130,0.0,2.0,80,0.00,,---,0.00,VWS V14.01,2013-11-02 07:48:00,
2013-11-02 02:51:00,39.4,33.8,30.17,SE,130,0.0,2.0,80,0.00,,---,0.00,VWS V14.01,2013-11-02 07:51:00,
2013-11-02 02:53:00,39.6,34.6,30.17,SE,130,0.0,3.0,82,0.00,,---,0.00,VWS V14.01,2013-11-02 07:53:00,
2013-11-02 02:58:00,39.8,34.5,30.17,SE,130,1.0,3.0,81,0.00,,---,0.00,VWS V14.01,2013-11-02 07:58:00,
2013-11-02 03:00:00,38.1,32.8,30.18,SE,130,0.0,2.0,81,0.00,,---,0.00,VWS V14.01,2013-11-02 08:00:00,
2013-11-02 03:08:00,40.0,34.7,30.17,SE,130,2.0,3.0,81,0.00,,---,0.00,VWS V14.01,2013-11-02 08:08:00,
2013-11-02 03:09:00,37.0,32.6,30.18,SE,130,1.0,2.0,84,0.00,,---,0.00,VWS V14.01,2013-11-02 08:09:00,
2013-11-02 03:14:00,39.9,34.5,30.17,SE,130,0.0,3.0,81,0.00,,---,0.00,VWS V14.01,2013-11-02 08:14:00,
2013-11-02 03:15:00,36.6,32.5,30.19,SE,130,1.0,2.0,85,0.00,,---,0.00,VWS V14.01,2013-11-02 08:15:00,
2013-11-02 03:18:00,36.5,32.7,30.19,SE,130,1.0,2.0,86,0.00,,---,0.00,VWS V14.01,2013-11-02 08:18:00,
2013-11-02 03:20:00,39.7,34.0,30.17,SE,130,0.0,3.0,80,0.00,,---,0.00,VWS V14.01,2013-11-02 08:20:00,
2013-11-02 03:24:00,36.8,33.3,30.19,SE,130,0.0,2.0,87,0.00,,---,0.00,VWS V14.01,2013-11-02 08:24:00,
2013-11-02 03:28:00,39.8,34.8,30.17,SE,130,0.0,3.0,82,0.00,,---,0.00,VWS V14.01,2013-11-02 08:28:00,
2013-11-02 03:30:00,37.1,33.3,30.19,SE,130,0.0,2.0,86,0.00,,---,0.00,VWS V14.01,2013-11-02 08:30:00,
2013-11-02 03:33:00,37.3,33.5,30.19,SE,130,1.0,2.0,86,0.00,,---,0.00,VWS V14.01,2013-11-02 08:33:00,
2013-11-02 03:38:00,40.2,34.8,30.17,SE,130,0.0,2.0,81,0.00,,---,0.00,VWS V14.01,2013-11-02 08:38:00,
2013-11-02 03:39:00,37.7,33.9,30.19,SE,130,0.0,2.0,86,0.00,,---,0.00,VWS V14.01,2013-11-02 08:39:00,
2013-11-02 03:41:00,40.1,34.8,30.17,SE,130,0.0,2.0,81,0.00,,---,0.00,VWS V14.01,2013-11-02 08:41:00,
2013-11-02 03:42:00,37.8,33.7,30.19,SE,130,0.0,2.0,85,0.00,,---,0.00,VWS V14.01,2013-11-02 08:42:00,
2013-11-02 03:44:00,40.0,34.7,30.17,SE,130,0.0,2.0,81,0.00,,---,0.00,VWS V14.01,2013-11-02 08:44:00,
2013-11-02 03:52:00,38.0,33.6,30.19,SE,130,0.0,2.0,84,0.00,,---,0.00,VWS V14.01,2013-11-02 08:52:00,
2013-11-02 03:53:00,39.0,33.0,30.18,SE,130,0.0,2.0,79,0.00,,---,0.00,VWS V14.01,2013-11-02 08:53:00,
2013-11-02 03:58:00,38.2,34.1,30.20,SE,130,0.0,2.0,85,0.00,,---,0.00,VWS V14.01,2013-11-02 08:58:00,
2013-11-02 03:59:00,38.0,32.7,30.18,SE,130,1.0,1.0,81,0.00,,---,0.00,VWS V14.01,2013-11-02 08:59:00,
2013-11-02 04:02:00,37.7,32.7,30.18,SE,130,0.0,2.0,82,0.00,,---,0.00,VWS V14.01,2013-11-02 09:02:00,
2013-11-02 04:04:00,38.4,34.0,30.20,SE,130,0.0,0.0,84,0.00,,---,0.00,VWS V14.01,2013-11-02 09:04:00,
2013-11-02 04:05:00,37.3,32.6,30.18,SE,130,1.0,2.0,83,0.00,,---,0.00,VWS V14.01,2013-11-02 09:05:00,
2013-11-02 04:07:00,38.4,34.0,30.20,SE,130,0.0,0.0,84,0.00,,---,0.00,VWS V14.01,2013-11-02 09:07:00,
2013-11-02 04:10:00,38.5,34.1,30.20,SE,130,0.0,1.0,84,0.00,,---,0.00,VWS V14.01,2013-11-02 09:10:00,
2013-11-02 04:11:00,36.7,32.3,30.19,SE,130,2.0,2.0,84,0.00,,---,0.00,VWS V14.01,2013-11-02 09:11:00,
2013-11-02 04:13:00,38.6,34.2,30.20,SE,130,1.0,1.0,84,0.00,,---,0.00,VWS V14.01,2013-11-02 09:13:00,
2013-11-02 04:16:00,38.7,34.3,30.20,SE,130,0.0,1.0,84,0.00,,---,0.00,VWS V14.01,2013-11-02 09:16:00,
2013-11-02 04:20:00,36.6,33.1,30.19,SE,130,2.0,2.0,87,0.00,,---,0.00,VWS V14.01,2013-11-02 09:20:00,
2013-11-02 04:26:00,37.0,33.5,30.19,SE,130,0.0,2.0,87,0.00,,---,0.00,VWS V14.01,2013-11-02 09:26:00,
2013-11-02 04:28:00,37.8,32.5,30.20,SE,130,0.0,1.0,81,0.00,,---,0.00,VWS V14.01,2013-11-02 09:28:00,
2013-11-02 04:29:00,37.1,33.3,30.19,SE,130,0.0,0.0,86,0.00,,---,0.00,VWS V14.01,2013-11-02 09:29:00,
2013-11-02 04:35:00,37.5,33.7,30.19,SE,130,1.0,2.0,86,0.00,,---,0.00,VWS V14.01,2013-11-02 09:35:00,
2013-11-02 04:44:00,38.0,33.9,30.19,SE,130,0.0,2.0,85,0.00,,---,0.00,VWS V14.01,2013-11-02 09:44:00,
2013-11-02 04:46:00,37.2,33.1,30.21,SE,130,0.0,1.0,85,0.00,,---,0.00,VWS V14.01,2013-11-02 09:46:00,
2013-11-02 04:53:00,38.1,34.0,30.20,SE,130,0.0,2.0,85,0.00,,---,0.00,VWS V14.01,2013-11-02 09:53:00,
2013-11-02 04:55:00,36.1,31.7,30.21,SE,130,0.0,1.0,84,0.00,,---,0.00,VWS V14.01,2013-11-02 09:55:00,
2013-11-02 04:58:00,38.3,34.2,30.20,SE,130,0.0,2.0,85,0.00,,---,0.00,VWS V14.01,2013-11-02 09:58:00,
2013-11-02 04:59:00,38.4,34.0,30.20,SE,130,0.0,0.0,84,0.00,,---,0.00,VWS V14.01,2013-11-02 09:59:00,
2013-11-02 05:10:00,35.6,32.4,30.21,SE,130,0.0,0.0,88,0.00,,---,0.00,VWS V14.01,2013-11-02 10:10:00,
2013-11-02 05:16:00,35.5,32.0,30.22,SE,130,0.0,0.0,87,0.00,,---,0.00,VWS V14.01,2013-11-02 10:16:00,
2013-11-02 05:18:00,38.7,34.3,30.20,SE,130,0.0,1.0,84,0.00,,---,0.00,VWS V14.01,2013-11-02 10:18:00,
2013-11-02 05:24:00,38.1,32.8,30.20,SE,130,0.0,1.0,81,0.00,,---,0.00,VWS V14.01,2013-11-02 10:24:00,
2013-11-02 05:25:00,34.9,31.4,30.22,SE,130,0.0,0.0,87,0.00,,---,0.00,VWS V14.01,2013-11-02 10:25:00,
2013-11-02 05:28:00,37.7,32.4,30.20,SE,130,0.0,1.0,81,0.00,,---,0.00,VWS V14.01,2013-11-02 10:28:00,
2013-11-02 05:30:00,37.6,32.6,30.20,SE,130,0.0,0.0,82,0.00,,---,0.00,VWS V14.01,2013-11-02 10:30:00,
2013-11-02 05:36:00,37.5,33.4,30.20,SE,130,1.0,1.0,85,0.00,,---,0.00,VWS V14.01,2013-11-02 10:36:00,
2013-11-02 05:40:00,34.8,31.9,30.22,SE,130,0.0,0.0,89,0.00,,---,0.00,VWS V14.01,2013-11-02 10:40:00,
2013-11-02 05:42:00,37.3,33.2,30.20,SE,130,0.0,1.0,85,0.00,,---,0.00,VWS V14.01,2013-11-02 10:42:00,
2013-11-02 05:43:00,34.8,31.9,30.22,SE,130,0.0,0.0,89,0.00,,---,0.00,VWS V14.01,2013-11-02 10:43:00,
2013-11-02 05:46:00,34.7,31.5,30.23,SE,130,2.0,2.0,88,0.00,,---,0.00,VWS V14.01,2013-11-02 10:46:00,
2013-11-02 05:48:00,36.9,32.5,30.21,SE,130,0.0,1.0,84,0.00,,---,0.00,VWS V14.01,2013-11-02 10:48:00,
2013-11-02 05:49:00,34.4,31.2,30.23,SE,130,2.0,2.0,88,0.00,,---,0.00,VWS V14.01,2013-11-02 10:49:00,
2013-11-02 05:52:00,34.1,30.6,30.23,SE,130,1.0,2.0,87,0.00,,---,0.00,VWS V14.01,2013-11-02 10:52:00,
2013-11-02 05:55:00,33.8,30.4,30.23,SE,130,1.0,2.0,87,0.00,,---,0.00,VWS V14.01,2013-11-02 10:55:00,
2013-11-02 05:57:00,35.8,31.5,30.21,SE,130,0.0,1.0,84,0.00,,---,0.00,VWS V14.01,2013-11-02 10:57:00,
2013-11-02 05:58:00,35.7,31.6,30.21,SE,130,0.0,1.0,85,0.00,,---,0.00,VWS V14.01,2013-11-02 10:58:00,
2013-11-02 06:03:00,35.5,31.7,30.21,SE,130,0.0,0.0,86,0.00,,---,0.00,VWS V14.01,2013-11-02 11:03:00,
2013-11-02 06:12:00,35.7,32.5,30.22,SE,130,0.0,0.0,88,0.00,,---,0.00,VWS V14.01,2013-11-02 11:12:00,
2013-11-02 06:14:00,33.3,30.4,30.24,SE,130,0.0,1.0,89,0.00,,---,0.00,VWS V14.01,2013-11-02 11:14:00,
2013-11-02 06:17:00,33.3,30.7,30.24,SE,130,0.0,1.0,90,0.00,,---,0.00,VWS V14.01,2013-11-02 11:17:00,
2013-11-02 06:18:00,35.3,31.8,30.22,SE,130,0.0,0.0,87,0.00,,---,0.00,VWS V14.01,2013-11-02 11:18:00,
2013-11-02 06:21:00,35.1,31.3,30.22,SE,130,0.0,0.0,86,0.00,,---,0.00,VWS V14.01,2013-11-02 11:21:00,
2013-11-02 06:27:00,34.9,31.4,30.22,SE,130,0.0,0.0,87,0.00,,---,0.00,VWS V14.01,2013-11-02 11:27:00,
2013-11-02 06:28:00,34.8,31.6,30.22,SE,130,0.0,0.0,88,0.00,,---,0.00,VWS V14.01,2013-11-02 11:28:00,
2013-11-02 06:36:00,34.7,31.5,30.22,SE,130,0.0,0.0,88,0.00,,---,0.00,VWS V14.01,2013-11-02 11:36:00,
2013-11-02 06:53:00,34.4,31.8,30.26,SE,130,0.0,1.0,90,0.00,,---,0.00,VWS V14.01,2013-11-02 11:53:00,
2013-11-02 06:58:00,33.5,30.3,30.23,SE,130,0.0,2.0,88,0.00,,---,0.00,VWS V14.01,2013-11-02 11:58:00,
2013-11-02 07:00:00,33.4,30.2,30.23,SE,130,0.0,0.0,88,0.00,,---,0.00,VWS V14.01,2013-11-02 12:00:00,
2013-11-02 07:03:00,33.4,30.5,30.24,SE,130,0.0,0.0,89,0.00,,---,0.00,VWS V14.01,2013-11-02 12:03:00,
2013-11-02 07:06:00,33.4,30.5,30.24,SE,130,0.0,1.0,89,0.00,,---,0.00,VWS V14.01,2013-11-02 12:06:00,
2013-11-02 07:09:00,33.3,30.4,30.24,SE,130,0.0,1.0,89,0.00,,---,0.00,VWS V14.01,2013-11-02 12:09:00,
2013-11-02 07:18:00,33.6,31.3,30.24,SE,130,0.0,1.0,91,0.00,,---,0.00,VWS V14.01,2013-11-02 12:18:00,
2013-11-02 07:25:00,34.1,31.8,30.25,SE,130,0.0,1.0,91,0.00,,---,0.00,VWS V14.01,2013-11-02 12:25:00,
2013-11-02 07:28:00,34.0,31.4,30.25,SE,130,0.0,1.0,90,0.00,,---,0.00,VWS V14.01,2013-11-02 12:28:00,
2013-11-02 07:31:00,33.8,30.9,30.25,SE,130,0.0,0.0,89,0.00,,---,0.00,VWS V14.01,2013-11-02 12:31:00,
2013-11-02 07:37:00,33.6,30.7,30.25,SE,130,0.0,1.0,89,0.00,,---,0.00,VWS V14.01,2013-11-02 12:37:00,
2013-11-02 07:40:00,33.5,30.6,30.25,SE,130,0.0,1.0,89,0.00,,---,0.00,VWS V14.01,2013-11-02 12:40:00,
2013-11-02 07:43:00,33.6,31.0,30.25,SE,130,1.0,1.0,90,0.00,,---,0.00,VWS V14.01,2013-11-02 12:43:00,
2013-11-02 07:46:00,33.8,31.2,30.25,SE,130,0.0,1.0,90,0.00,,---,0.00,VWS V14.01,2013-11-02 12:46:00,
2013-11-02 07:49:00,34.1,31.8,30.26,SE,130,0.0,1.0,91,0.00,,---,0.00,VWS V14.01,2013-11-02 12:49:00,
2013-11-02 07:55:00,34.6,32.0,30.26,SE,130,0.0,1.0,90,0.00,,---,0.00,VWS V14.01,2013-11-02 12:55:00,
2013-11-02 07:58:00,34.6,31.7,30.26,SE,130,0.0,1.0,89,0.00,,---,0.00,VWS V14.01,2013-11-02 12:58:00,
2013-11-02 08:01:00,34.7,31.8,30.26,SE,130,0.0,0.0,89,0.00,,---,0.00,VWS V14.01,2013-11-02 13:01:00,
2013-11-02 08:04:00,34.7,31.8,30.26,SE,130,0.0,0.0,89,0.00,,---,0.00,VWS V14.01,2013-11-02 13:04:00,
2013-11-02 08:10:00,34.5,31.3,30.26,SE,130,0.0,0.0,88,0.00,,---,0.00,VWS V14.01,2013-11-02 13:10:00,
2013-11-02 08:16:00,34.6,31.7,30.27,SE,130,0.0,0.0,89,0.00,,---,0.00,VWS V14.01,2013-11-02 13:16:00,
2013-11-02 08:22:00,34.8,31.9,30.27,SE,130,0.0,0.0,89,0.00,,---,0.00,VWS V14.01,2013-11-02 13:22:00,
2013-11-02 08:25:00,35.0,32.1,30.27,SE,130,0.0,0.0,89,0.00,,---,0.00,VWS V14.01,2013-11-02 13:25:00,
2013-11-02 08:28:00,35.2,32.3,30.27,SE,130,0.0,0.0,89,0.00,,---,0.00,VWS V14.01,2013-11-02 13:28:00,
2013-11-02 08:31:00,35.5,32.6,30.27,SE,130,0.0,0.0,89,0.00,,---,0.00,VWS V14.01,2013-11-02 13:31:00,
2013-11-02 08:34:00,35.7,32.8,30.27,SE,130,0.0,0.0,89,0.00,,---,0.00,VWS V14.01,2013-11-02 13:34:00,
2013-11-02 08:37:00,36.1,33.2,30.27,SE,130,0.0,1.0,89,0.00,,---,0.00,VWS V14.01,2013-11-02 13:37:00,
2013-11-02 08:40:00,36.5,33.8,30.27,SE,130,1.0,2.0,90,0.00,,---,0.00,VWS V14.01,2013-11-02 13:40:00,
2013-11-02 08:43:00,37.1,34.4,30.28,SE,130,0.0,2.0,90,0.00,,---,0.00,VWS V14.01,2013-11-02 13:43:00,
2013-11-02 08:49:00,38.4,34.9,30.28,SE,130,3.0,3.0,87,0.00,,---,0.00,VWS V14.01,2013-11-02 13:49:00,
2013-11-02 08:52:00,39.0,35.5,30.28,SE,131,2.0,4.0,87,0.00,,---,0.00,VWS V14.01,2013-11-02 13:52:00,
2013-11-02 08:55:00,39.7,35.9,30.29,SE,132,1.0,4.0,86,0.00,,---,0.00,VWS V14.01,2013-11-02 13:55:00,
2013-11-02 08:58:00,40.3,36.5,30.29,SE,131,1.0,4.0,86,0.00,,---,0.00,VWS V14.01,2013-11-02 13:58:00,
2013-11-02 09:01:00,40.9,36.8,30.29,SE,132,1.0,2.0,85,0.00,,---,0.00,VWS V14.01,2013-11-02 14:01:00,
2013-11-02 09:07:00,42.4,37.9,30.30,SE,131,0.0,2.0,84,0.00,,---,0.00,VWS V14.01,2013-11-02 14:07:00,
2013-11-02 09:10:00,43.3,38.2,30.30,SE,131,0.0,2.0,82,0.00,,---,0.00,VWS V14.01,2013-11-02 14:10:00,
2013-11-02 09:16:00,45.1,38.7,30.30,SE,131,0.0,2.0,78,0.00,,---,0.00,VWS V14.01,2013-11-02 14:16:00,
2013-11-02 09:22:00,47.1,39.2,30.30,SE,132,0.0,2.0,74,0.00,,---,0.00,VWS V14.01,2013-11-02 14:22:00,
2013-11-02 09:25:00,48.1,39.5,30.30,SE,132,0.0,2.0,72,0.00,,---,0.00,VWS V14.01,2013-11-02 14:25:00,
2013-11-02 09:28:00,49.0,39.3,30.30,SE,132,0.0,2.0,69,0.00,,---,0.00,VWS V14.01,2013-11-02 14:28:00,
2013-11-02 09:31:00,49.7,38.8,30.31,SE,126,0.0,0.0,66,0.00,,---,0.00,VWS V14.01,2013-11-02 14:31:00,
2013-11-02 09:34:00,50.4,39.1,30.31,SE,126,0.0,0.0,65,0.00,,---,0.00,VWS V14.01,2013-11-02 14:34:00,
2013-11-02 09:38:00,50.9,38.4,30.31,North,5,0.0,6.0,62,0.00,,---,0.00,VWS V14.01,2013-11-02 14:38:00,
2013-11-02 09:41:00,51.3,37.9,30.31,NNE,25,0.0,6.0,60,0.00,,---,0.00,VWS V14.01,2013-11-02 14:41:00,
2013-11-02 09:44:00,51.7,38.7,30.31,NNE,15,3.0,6.0,61,0.00,,---,0.00,VWS V14.01,2013-11-02 14:44:00,
2013-11-02 09:47:00,52.1,39.5,30.31,NNE,15,0.0,6.0,62,0.00,,---,0.00,VWS V14.01,2013-11-02 14:47:00,
2013-11-02 09:50:00,52.4,38.5,30.31,NNE,21,2.0,6.0,59,0.00,,---,0.00,VWS V14.01,2013-11-02 14:50:00,
2013-11-02 09:53:00,52.7,37.9,30.32,NNE,22,2.0,6.0,57,0.00,,---,0.00,VWS V14.01,2013-11-02 14:53:00,
2013-11-02 09:58:00,53.0,38.6,30.32,North,5,1.0,7.0,58,0.00,,---,0.00,VWS V14.01,2013-11-02 14:58:00,
2013-11-02 09:59:00,53.1,38.7,30.32,North,11,0.0,2.0,58,0.00,,---,0.00,VWS V14.01,2013-11-02 14:59:00,
2013-11-02 10:02:00,53.4,37.7,30.32,North,360,2.0,6.0,55,0.00,,---,0.00,VWS V14.01,2013-11-02 15:02:00,
2013-11-02 10:05:00,53.6,37.8,30.32,NNE,22,2.0,6.0,55,0.00,,---,0.00,VWS V14.01,2013-11-02 15:05:00,
2013-11-02 10:11:00,54.2,38.4,30.32,NNE,14,0.0,7.0,55,0.00,,---,0.00,VWS V14.01,2013-11-02 15:11:00,
2013-11-02 10:14:00,54.6,38.8,30.32,North,360,2.0,7.0,55,0.00,,---,0.00,VWS V14.01,2013-11-02 15:14:00,
2013-11-02 10:17:00,55.1,38.3,30.32,North,5,5.0,8.0,53,0.00,,---,0.00,VWS V14.01,2013-11-02 15:17:00,
2013-11-02 10:23:00,55.7,37.9,30.32,NNE,24,3.0,8.0,51,0.00,,---,0.00,VWS V14.01,2013-11-02 15:23:00,
2013-11-02 10:26:00,56.0,37.6,30.32,NNE,19,5.0,10.0,50,0.00,,---,0.00,VWS V14.01,2013-11-02 15:26:00,
2013-11-02 10:28:00,56.1,37.2,30.32,NE,44,5.0,10.0,49,0.00,,---,0.00,VWS V14.01,2013-11-02 15:28:00,
2013-11-02 10:32:00,56.3,38.4,30.32,North,355,1.0,7.0,51,0.00,,---,0.00,VWS V14.01,2013-11-02 15:32:00,
2013-11-02 10:35:00,56.7,38.3,30.32,North,9,3.0,9.0,50,0.00,,---,0.00,VWS V14.01,2013-11-02 15:35:00,
2013-11-02 10:38:00,56.8,38.4,30.32,NNE,17,3.0,9.0,50,0.00,,---,0.00,VWS V14.01,2013-11-02 15:38:00,
2013-11-02 10:44:00,57.4,37.9,30.32,NNE,13,0.0,9.0,48,0.00,,---,0.00,VWS V14.01,2013-11-02 15:44:00,
2013-11-02 10:47:00,57.7,38.2,30.32,NE,41,2.0,9.0,48,0.00,,---,0.00,VWS V14.01,2013-11-02 15:47:00,
2013-11-02 10:53:00,58.4,37.7,30.32,North,9,0.0,9.0,46,0.00,,---,0.00,VWS V14.01,2013-11-02 15:53:00,
2013-11-02 10:56:00,58.4,37.7,30.32,NNE,26,4.0,9.0,46,0.00,,---,0.00,VWS V14.01,2013-11-02 15:56:00,
2013-11-02 10:58:00,58.5,38.4,30.32,NNE,15,4.0,9.0,47,0.00,,---,0.00,VWS V14.01,2013-11-02 15:58:00,
2013-11-02 10:59:00,58.6,37.9,30.33,NNE,22,6.0,8.0,46,0.00,,---,0.00,VWS V14.01,2013-11-02 15:59:00,
2013-11-02 11:05:00,58.8,38.6,30.33,NNE,13,3.0,8.0,47,0.00,,---,0.00,VWS V14.01,2013-11-02 16:05:00,
2013-11-02 11:08:00,59.1,38.9,30.32,NNE,16,2.0,8.0,47,0.00,,---,0.00,VWS V14.01,2013-11-02 16:08:00,
2013-11-02 11:11:00,59.5,38.2,30.32,North,360,5.0,8.0,45,0.00,,---,0.00,VWS V14.01,2013-11-02 16:11:00,
2013-11-02 11:14:00,59.7,38.3,30.32,NNW,341,1.0,8.0,45,0.00,,---,0.00,VWS V14.01,2013-11-02 16:14:00,
2013-11-02 11:17:00,59.9,38.5,30.32,NE,55,1.0,8.0,45,0.00,,---,0.00,VWS V14.01,2013-11-02 16:17:00,
2013-11-02 11:20:00,59.9,38.5,30.32,North,9,2.0,8.0,45,0.00,,---,0.00,VWS V14.01,2013-11-02 16:20:00,
2013-11-02 11:23:00,60.2,38.2,30.32,NNW,333,0.0,8.0,44,0.00,,---,0.00,VWS V14.01,2013-11-02 16:23:00,
2013-11-02 11:26:00,60.6,38.6,30.32,NNW,338,0.0,8.0,44,0.00,,---,0.00,VWS V14.01,2013-11-02 16:26:00,
2013-11-02 11:28:00,60.7,38.1,30.32,NNE,20,0.0,8.0,43,0.00,,---,0.00,VWS V14.01,2013-11-02 16:28:00,
2013-11-02 11:32:00,60.8,37.6,30.32,North,355,0.0,7.0,42,0.00,,---,0.00,VWS V14.01,2013-11-02 16:32:00,
2013-11-02 11:35:00,60.9,37.7,30.32,ENE,61,0.0,8.0,42,0.00,,---,0.00,VWS V14.01,2013-11-02 16:35:00,
2013-11-02 11:38:00,61.1,38.5,30.32,NE,45,0.0,8.0,43,0.00,,---,0.00,VWS V14.01,2013-11-02 16:38:00,
2013-11-02 11:41:00,61.3,38.0,30.32,NNE,23,0.0,8.0,42,0.00,,---,0.00,VWS V14.01,2013-11-02 16:41:00,
2013-11-02 11:44:00,61.6,39.5,30.32,NNW,334,0.0,8.0,44,0.00,,---,0.00,VWS V14.01,2013-11-02 16:44:00,
2013-11-02 11:47:00,61.9,38.6,30.32,NW,323,1.0,8.0,42,0.00,,---,0.00,VWS V14.01,2013-11-02 16:47:00,
2013-11-02 11:54:00,62.3,37.0,30.32,NE,35,0.0,8.0,39,0.00,,---,0.00,VWS V14.01,2013-11-02 16:54:00,
2013-11-02 11:58:00,62.7,38.7,30.32,North,9,0.0,8.0,41,0.00,,---,0.00,VWS V14.01,2013-11-02 16:58:00,
2013-11-02 12:00:00,62.8,38.8,30.32,NNE,15,1.0,4.0,41,0.00,,---,0.00,VWS V14.01,2013-11-02 17:00:00,
2013-11-02 12:03:00,63.0,37.7,30.32,North,360,0.0,7.0,39,0.00,,---,0.00,VWS V14.01,2013-11-02 17:03:00,
2013-11-02 12:09:00,63.4,38.7,30.32,NW,305,5.0,8.0,40,0.00,,---,0.00,VWS V14.01,2013-11-02 17:09:00,
2013-11-02 12:12:00,63.3,38.0,30.32,NNW,336,0.0,8.0,39,0.00,,---,0.00,VWS V14.01,2013-11-02 17:12:00,
2013-11-02 12:15:00,63.4,38.0,30.32,NE,39,0.0,8.0,39,0.00,,---,0.00,VWS V14.01,2013-11-02 17:15:00,
2013-11-02 12:18:00,63.5,38.1,30.31,WNW,302,3.0,8.0,39,0.00,,---,0.00,VWS V14.01,2013-11-02 17:18:00,
2013-11-02 12:24:00,63.6,37.5,30.31,NNE,22,1.0,8.0,38,0.00,,---,0.00,VWS V14.01,2013-11-02 17:24:00,
2013-11-02 12:27:00,63.8,37.0,30.31,NE,52,0.0,8.0,37,0.00,,---,0.00,VWS V14.01,2013-11-02 17:27:00,
2013-11-02 12:33:00,64.5,37.7,30.31,NNE,27,1.0,7.0,37,0.00,,---,0.00,VWS V14.01,2013-11-02 17:33:00,
2013-11-02 12:36:00,64.6,37.1,30.31,North,360,5.0,9.0,36,0.00,,---,0.00,VWS V14.01,2013-11-02 17:36:00,
2013-11-02 12:39:00,64.5,36.3,30.31,NNE,21,2.0,9.0,35,0.00,,---,0.00,VWS V14.01,2013-11-02 17:39:00,
2013-11-02 12:42:00,64.5,36.3,30.31,NNW,327,2.0,9.0,35,0.00,,---,0.00,VWS V14.01,2013-11-02 17:42:00,
2013-11-02 12:45:00,64.7,37.8,30.31,NNE,22,0.0,9.0,37,0.00,,---,0.00,VWS V14.01,2013-11-02 17:45:00,
2013-11-02 12:48:00,65.0,38.1,30.31,NNW,346,2.0,9.0,37,0.00,,---,0.00,VWS V14.01,2013-11-02 17:48:00,
2013-11-02 12:54:00,65.1,37.5,30.30,NW,319,0.0,9.0,36,0.00,,---,0.00,VWS V14.01,2013-11-02 17:54:00,
2013-11-02 12:57:00,65.4,37.8,30.30,WNW,302,4.0,9.0,36,0.00,,---,0.00,VWS V14.01,2013-11-02 17:57:00,
2013-11-02 13:00:00,65.6,37.2,30.30,WNW,298,1.0,2.0,35,0.00,,---,0.00,VWS V14.01,2013-11-02 18:00:00,
2013-11-02 13:06:00,66.0,36.8,30.30,North,5,3.0,9.0,34,0.00,,---,0.00,VWS V14.01,2013-11-02 18:06:00,
2013-11-02 13:09:00,66.0,37.6,30.30,WNW,291,2.0,9.0,35,0.00,,---,0.00,VWS V14.01,2013-11-02 18:09:00,
2013-11-02 13:12:00,65.8,37.4,30.30,NW,311,0.0,9.0,35,0.00,,---,0.00,VWS V14.01,2013-11-02 18:12:00,
2013-11-02 13:15:00,65.9,36.0,30.29,ENE,61,0.0,9.0,33,0.00,,---,0.00,VWS V14.01,2013-11-02 18:15:00,
2013-11-02 13:18:00,66.1,37.7,30.29,North,5,0.0,9.0,35,0.00,,---,0.00,VWS V14.01,2013-11-02 18:18:00,
2013-11-02 13:21:00,66.5,37.3,30.29,NE,50,3.0,9.0,34,0.00,,---,0.00,VWS V14.01,2013-11-02 18:21:00,
2013-11-02 13:24:00,66.8,36.8,30.29,ENE,63,2.0,9.0,33,0.00,,---,0.00,VWS V14.01,2013-11-02 18:24:00,
2013-11-02 13:27:00,66.8,37.6,30.28,NNE,29,4.0,9.0,34,0.00,,---,0.00,VWS V14.01,2013-11-02 18:27:00,
2013-11-02 13:28:00,66.9,35.3,30.28,NNE,17,5.0,9.0,31,0.00,,---,0.00,VWS V14.01,2013-11-02 18:28:00,
2013-11-02 13:30:00,66.9,35.3,30.28,North,355,0.0,6.0,31,0.00,,---,0.00,VWS V14.01,2013-11-02 18:30:00,
2013-11-02 13:33:00,67.2,36.4,30.28,North,355,6.0,7.0,32,0.00,,---,0.00,VWS V14.01,2013-11-02 18:33:00,
2013-11-02 13:36:00,67.5,36.6,30.28,NNW,344,7.0,8.0,32,0.00,,---,0.00,VWS V14.01,2013-11-02 18:36:00,
2013-11-02 13:42:00,67.6,35.9,30.27,WNW,292,1.0,10.0,31,0.00,,---,0.00,VWS V14.01,2013-11-02 18:42:00,
2013-11-02 13:45:00,67.3,36.5,30.27,NW,319,4.0,10.0,32,0.00,,---,0.00,VWS V14.01,2013-11-02 18:45:00,
2013-11-02 13:48:00,67.0,36.2,30.27,WNW,295,7.0,10.0,32,0.00,,---,0.00,VWS V14.01,2013-11-02 18:48:00,
2013-11-02 13:51:00,67.3,36.5,30.26,ENE,58,7.0,10.0,32,0.00,,---,0.00,VWS V14.01,2013-11-02 18:51:00,
2013-11-02 13:58:00,67.9,36.2,30.26,North,350,5.0,10.0,31,0.00,,---,0.00,VWS V14.01,2013-11-02 18:58:00,
2013-11-02 14:04:00,68.3,35.7,30.26,NNE,15,1.0,12.0,30,0.00,,---,0.00,VWS V14.01,2013-11-02 19:04:00,
2013-11-02 14:07:00,68.2,35.6,30.26,NNE,17,0.0,12.0,30,0.00,,---,0.00,VWS V14.01,2013-11-02 19:07:00,
2013-11-02 14:10:00,68.1,33.8,30.25,NNE,19,4.0,12.0,28,0.00,,---,0.00,VWS V14.01,2013-11-02 19:10:00,
2013-11-02 14:13:00,68.1,34.7,30.25,NNE,13,5.0,12.0,29,0.00,,---,0.00,VWS V14.01,2013-11-02 19:13:00,
2013-11-02 14:16:00,68.1,35.5,30.25,NNE,29,2.0,12.0,30,0.00,,---,0.00,VWS V14.01,2013-11-02 19:16:00,
2013-11-02 14:19:00,68.3,35.7,30.25,NNE,28,6.0,12.0,30,0.00,,---,0.00,VWS V14.01,2013-11-02 19:19:00,
2013-11-02 14:22:00,68.3,34.8,30.25,North,355,5.0,13.0,29,0.00,,---,0.00,VWS V14.01,2013-11-02 19:22:00,
2013-11-02 14:25:00,68.5,35.0,30.24,NE,46,0.0,13.0,29,0.00,,---,0.00,VWS V14.01,2013-11-02 19:25:00,
2013-11-02 14:28:00,68.7,34.3,30.25,NNE,13,7.0,13.0,28,0.00,,---,0.00,VWS V14.01,2013-11-02 19:28:00,
2013-11-02 14:31:00,68.8,35.3,30.24,NNE,17,4.0,5.0,29,0.00,,---,0.00,VWS V14.01,2013-11-02 19:31:00,
2013-11-02 14:37:00,69.1,35.5,30.24,NNE,20,3.0,11.0,29,0.00,,---,0.00,VWS V14.01,2013-11-02 19:37:00,
2013-11-02 14:40:00,69.1,34.7,30.24,ENE,74,0.0,11.0,28,0.00,,---,0.00,VWS V14.01,2013-11-02 19:40:00,
2013-11-02 14:43:00,69.2,35.6,30.24,West,278,1.0,11.0,29,0.00,,---,0.00,VWS V14.01,2013-11-02 19:43:00,
2013-11-02 14:46:00,69.2,35.6,30.23,NW,319,0.0,11.0,29,0.00,,---,0.00,VWS V14.01,2013-11-02 19:46:00,
2013-11-02 14:49:00,69.2,34.7,30.23,North,360,1.0,11.0,28,0.00,,---,0.00,VWS V14.01,2013-11-02 19:49:00,
2013-11-02 14:52:00,69.2,34.7,30.23,North,9,0.0,11.0,28,0.00,,---,0.00,VWS V14.01,2013-11-02 19:52:00,
2013-11-02 14:55:00,69.4,35.8,30.23,NNW,338,0.0,11.0,29,0.00,,---,0.00,VWS V14.01,2013-11-02 19:55:00,
2013-11-02 14:58:00,69.6,35.1,30.23,NE,44,2.0,11.0,28,0.00,,---,0.00,VWS V14.01,2013-11-02 19:58:00,
2013-11-02 15:01:00,69.8,35.3,30.23,NE,50,1.0,5.0,28,0.00,,---,0.00,VWS V14.01,2013-11-02 20:01:00,
2013-11-02 15:04:00,70.1,35.5,30.23,North,360,0.0,5.0,28,0.00,,---,0.00,VWS V14.01,2013-11-02 20:04:00,
2013-11-02 15:07:00,70.4,34.9,30.23,NNW,344,3.0,7.0,27,0.00,,---,0.00,VWS V14.01,2013-11-02 20:07:00,
2013-11-02 15:10:00,70.1,33.7,30.23,NW,313,7.0,11.0,26,0.00,,---,0.00,VWS V14.01,2013-11-02 20:10:00,
2013-11-02 15:13:00,69.7,34.3,30.23,NNE,27,3.0,11.0,27,0.00,,---,0.00,VWS V14.01,2013-11-02 20:13:00,
2013-11-02 15:16:00,69.8,34.3,30.22,NE,36,6.0,11.0,27,0.00,,---,0.00,VWS V14.01,2013-11-02 20:16:00,
2013-11-02 15:19:00,69.7,34.3,30.22,NNE,17,4.0,11.0,27,0.00,,---,0.00,VWS V14.01,2013-11-02 20:19:00,
2013-11-02 15:22:00,69.8,33.4,30.22,NNE,22,8.0,11.0,26,0.00,,---,0.00,VWS V14.01,2013-11-02 20:22:00,
2013-11-02 15:25:00,69.8,33.4,30.22,ENE,67,0.0,11.0,26,0.00,,---,0.00,VWS V14.01,2013-11-02 20:25:00,
2013-11-02 15:28:00,70.0,34.5,30.22,North,5,4.0,11.0,27,0.00,,---,0.00,VWS V14.01,2013-11-02 20:28:00,
2013-11-02 15:34:00,70.2,33.7,30.22,NE,36,5.0,7.0,26,0.00,,---,0.00,VWS V14.01,2013-11-02 20:34:00,
2013-11-02 15:37:00,70.0,33.6,30.22,North,351,0.0,10.0,26,0.00,,---,0.00,VWS V14.01,2013-11-02 20:37:00,
2013-11-02 15:40:00,70.0,33.6,30.22,North,351,1.0,10.0,26,0.00,,---,0.00,VWS V14.01,2013-11-02 20:40:00,
2013-11-02 15:43:00,70.0,35.4,30.22,East,79,2.0,10.0,28,0.00,,---,0.00,VWS V14.01,2013-11-02 20:43:00,
2013-11-02 15:46:00,69.9,33.5,30.21,East,83,0.0,10.0,26,0.00,,---,0.00,VWS V14.01,2013-11-02 20:46:00,
2013-11-02 15:49:00,70.0,34.5,30.21,NE,38,2.0,10.0,27,0.00,,---,0.00,VWS V14.01,2013-11-02 20:49:00,
2013-11-02 15:52:00,69.9,34.4,30.21,NNE,16,1.0,10.0,27,0.00,,---,0.00,VWS V14.01,2013-11-02 20:52:00,
2013-11-02 15:58:00,70.0,34.5,30.21,NNE,21,3.0,10.0,27,0.00,,---,0.00,VWS V14.01,2013-11-02 20:58:00,
2013-11-02 16:01:00,70.0,35.4,30.21,NNE,22,1.0,5.0,28,0.00,,---,0.00,VWS V14.01,2013-11-02 21:01:00,
2013-11-02 16:04:00,70.2,34.7,30.20,North,355,8.0,8.0,27,0.00,,---,0.00,VWS V14.01,2013-11-02 21:04:00,
2013-11-02 16:11:00,70.2,35.6,30.20,NNW,335,3.0,8.0,28,0.00,,---,0.00,VWS V14.01,2013-11-02 21:11:00,
2013-11-02 16:14:00,70.3,34.8,30.20,NNE,15,1.0,8.0,27,0.00,,---,0.00,VWS V14.01,2013-11-02 21:14:00,
2013-11-02 16:17:00,70.3,33.8,30.20,NNE,17,0.0,8.0,26,0.00,,---,0.00,VWS V14.01,2013-11-02 21:17:00,
2013-11-02 16:20:00,70.5,34.0,30.20,WNW,292,1.0,8.0,26,0.00,,---,0.00,VWS V14.01,2013-11-02 21:20:00,
2013-11-02 16:23:00,70.4,33.9,30.20,NNW,339,1.0,8.0,26,0.00,,---,0.00,VWS V14.01,2013-11-02 21:23:00,
2013-11-02 16:26:00,70.4,34.9,30.20,NNW,339,5.0,8.0,27,0.00,,---,0.00,VWS V14.01,2013-11-02 21:26:00,
2013-11-02 16:28:00,70.3,33.8,30.20,WNW,302,1.0,8.0,26,0.00,,---,0.00,VWS V14.01,2013-11-02 21:28:00,
2013-11-02 16:29:00,70.2,33.7,30.20,NW,304,2.0,2.0,26,0.00,,---,0.00,VWS V14.01,2013-11-02 21:29:00,
2013-11-02 16:32:00,70.1,33.7,30.20,NNW,343,4.0,4.0,26,0.00,,---,0.00,VWS V14.01,2013-11-02 21:32:00,
2013-11-02 16:35:00,70.2,33.7,30.20,NNE,19,2.0,10.0,26,0.00,,---,0.00,VWS V14.01,2013-11-02 21:35:00,
2013-11-02 16:41:00,70.0,33.6,30.20,NNE,16,5.0,10.0,26,0.00,,---,0.00,VWS V14.01,2013-11-02 21:41:00,
2013-11-02 16:47:00,69.8,33.4,30.20,NW,311,0.0,10.0,26,0.00,,---,0.00,VWS V14.01,2013-11-02 21:47:00,
2013-11-02 16:50:00,69.8,33.4,30.20,ENE,59,0.0,10.0,26,0.00,,---,0.00,VWS V14.01,2013-11-02 21:50:00,
2013-11-02 16:53:00,69.7,33.3,30.20,NW,311,0.0,10.0,26,0.00,,---,0.00,VWS V14.01,2013-11-02 21:53:00,
2013-11-02 16:56:00,69.6,34.2,30.20,NE,34,2.0,10.0,27,0.00,,---,0.00,VWS V14.01,2013-11-02 21:56:00,
2013-11-02 16:58:00,69.5,33.1,30.20,NNE,12,2.0,10.0,26,0.00,,---,0.00,VWS V14.01,2013-11-02 21:58:00,
2013-11-02 17:02:00,69.5,33.1,30.20,NW,313,3.0,5.0,26,0.00,,---,0.00,VWS V14.01,2013-11-02 22:02:00,
2013-11-02 17:05:00,69.5,34.1,30.19,NNE,30,0.0,5.0,27,0.00,,---,0.00,VWS V14.01,2013-11-02 22:05:00,
2013-11-02 17:08:00,69.6,34.2,30.20,NNE,20,4.0,6.0,27,0.00,,---,0.00,VWS V14.01,2013-11-02 22:08:00,
2013-11-02 17:11:00,69.3,33.0,30.19,ENE,75,2.0,6.0,26,0.00,,---,0.00,VWS V14.01,2013-11-02 22:11:00,
2013-11-02 17:14:00,69.0,32.7,30.19,ENE,59,2.0,6.0,26,0.00,,---,0.00,VWS V14.01,2013-11-02 22:14:00,
2013-11-02 17:17:00,68.8,33.5,30.19,NNE,19,0.0,6.0,27,0.00,,---,0.00,VWS V14.01,2013-11-02 22:17:00,
2013-11-02 17:20:00,68.6,32.4,30.19,NNE,22,0.0,7.0,26,0.00,,---,0.00,VWS V14.01,2013-11-02 22:20:00,
2013-11-02 17:23:00,68.6,33.3,30.19,NNE,17,2.0,7.0,27,0.00,,---,0.00,VWS V14.01,2013-11-02 22:23:00,
2013-11-02 17:26:00,68.5,33.2,30.19,North,355,1.0,8.0,27,0.00,,---,0.00,VWS V14.01,2013-11-02 22:26:00,
2013-11-02 17:29:00,68.5,34.1,30.19,NNW,327,0.0,3.0,28,0.00,,---,0.00,VWS V14.01,2013-11-02 22:29:00,
2013-11-02 17:32:00,68.6,32.4,30.19,NNW,330,0.0,6.0,26,0.00,,---,0.00,VWS V14.01,2013-11-02 22:32:00,
2013-11-02 17:38:00,68.5,33.2,30.19,NNE,28,3.0,6.0,27,0.00,,---,0.00,VWS V14.01,2013-11-02 22:38:00,
2013-11-02 17:41:00,68.3,33.1,30.19,NNE,19,0.0,6.0,27,0.00,,---,0.00,VWS V14.01,2013-11-02 22:41:00,
2013-11-02 17:44:00,68.1,33.8,30.18,NNE,31,0.0,6.0,28,0.00,,---,0.00,VWS V14.01,2013-11-02 22:44:00,
2013-11-02 17:47:00,68.1,32.9,30.18,NNW,342,0.0,6.0,27,0.00,,---,0.00,VWS V14.01,2013-11-02 22:47:00,
2013-11-02 17:50:00,68.1,32.9,30.18,NNE,21,0.0,6.0,27,0.00,,---,0.00,VWS V14.01,2013-11-02 22:50:00,
2013-11-02 17:53:00,68.0,33.7,30.18,NNE,20,0.0,6.0,28,0.00,,---,0.00,VWS V14.01,2013-11-02 22:53:00,
2013-11-02 17:56:00,67.7,32.5,30.18,NNE,19,0.0,6.0,27,0.00,,---,0.00,VWS V14.01,2013-11-02 22:56:00,
2013-11-02 17:58:00,67.5,33.3,30.18,NNE,19,0.0,6.0,28,0.00,,---,0.00,VWS V14.01,2013-11-02 22:58:00,
2013-11-02 17:59:00,67.5,33.3,30.18,NNE,19,0.0,0.0,28,0.00,,---,0.00,VWS V14.01,2013-11-02 22:59:00,
2013-11-02 18:06:00,67.2,33.9,30.18,NNE,19,0.0,0.0,29,0.00,,---,0.00,VWS V14.01,2013-11-02 23:06:00,
2013-11-02 18:09:00,67.2,33.0,30.18,NNE,19,0.0,0.0,28,0.00,,---,0.00,VWS V14.01,2013-11-02 23:09:00,
2013-11-02 18:12:00,67.1,32.9,30.18,NNE,19,0.0,0.0,28,0.00,,---,0.00,VWS V14.01,2013-11-02 23:12:00,
2013-11-02 18:15:00,66.7,33.5,30.18,NNE,20,0.0,3.0,29,0.00,,---,0.00,VWS V14.01,2013-11-02 23:15:00,
2013-11-02 18:18:00,66.3,34.0,30.18,NNE,20,0.0,3.0,30,0.00,,---,0.00,VWS V14.01,2013-11-02 23:18:00,
2013-11-02 18:21:00,65.7,33.5,30.18,NE,40,2.0,3.0,30,0.00,,---,0.00,VWS V14.01,2013-11-02 23:21:00,
2013-11-02 18:24:00,65.2,33.8,30.18,NE,40,0.0,3.0,31,0.00,,---,0.00,VWS V14.01,2013-11-02 23:24:00,
2013-11-02 18:28:00,64.5,33.2,30.18,NE,40,0.0,3.0,31,0.00,,---,0.00,VWS V14.01,2013-11-02 23:28:00,
2013-11-02 18:30:00,64.3,33.0,30.18,NE,40,0.0,0.0,31,0.00,,---,0.00,VWS V14.01,2013-11-02 23:30:00,
2013-11-02 18:33:00,64.0,33.6,30.18,NE,40,0.0,0.0,32,0.00,,---,0.00,VWS V14.01,2013-11-02 23:33:00,
2013-11-02 18:39:00,63.3,34.5,30.18,NE,40,0.0,0.0,34,0.00,,---,0.00,VWS V14.01,2013-11-02 23:39:00,
2013-11-02 18:42:00,62.9,33.4,30.18,NE,40,0.0,0.0,33,0.00,,---,0.00,VWS V14.01,2013-11-02 23:42:00,
2013-11-02 18:45:00,62.4,33.7,30.18,NE,40,0.0,0.0,34,0.00,,---,0.00,VWS V14.01,2013-11-02 23:45:00,
2013-11-02 18:51:00,61.1,34.7,30.18,NE,40,0.0,0.0,37,0.00,,---,0.00,VWS V14.01,2013-11-02 23:51:00,
2013-11-02 18:54:00,60.5,34.8,30.18,NE,40,0.0,0.0,38,0.00,,---,0.00,VWS V14.01,2013-11-02 23:54:00,
2013-11-02 18:58:00,59.6,34.6,30.18,NE,40,0.0,0.0,39,0.00,,---,0.00,VWS V14.01,2013-11-02 23:58:00,
2013-11-02 19:03:00,58.5,34.9,30.18,NE,40,0.0,0.0,41,0.00,,---,0.00,VWS V14.01,2013-11-03 00:03:00,
2013-11-02 19:06:00,57.7,34.2,30.17,NE,40,0.0,0.0,41,0.00,,---,0.00,VWS V14.01,2013-11-03 00:06:00,
2013-11-02 19:09:00,57.0,34.8,30.17,NE,40,0.0,0.0,43,0.00,,---,0.00,VWS V14.01,2013-11-03 00:09:00,
2013-11-02 19:12:00,56.2,34.0,30.17,NE,40,0.0,0.0,43,0.00,,---,0.00,VWS V14.01,2013-11-03 00:12:00,
2013-11-02 19:15:00,55.3,34.3,30.17,NE,40,0.0,0.0,45,0.00,,---,0.00,VWS V14.01,2013-11-03 00:15:00,
2013-11-02 19:18:00,54.6,34.2,30.18,NE,40,0.0,0.0,46,0.00,,---,0.00,VWS V14.01,2013-11-03 00:18:00,
2013-11-02 19:21:00,54.1,34.3,30.18,NE,40,0.0,0.0,47,0.00,,---,0.00,VWS V14.01,2013-11-03 00:21:00,
2013-11-02 19:24:00,53.9,34.7,30.18,NE,40,0.0,0.0,48,0.00,,---,0.00,VWS V14.01,2013-11-03 00:24:00,
2013-11-02 19:27:00,53.5,33.8,30.18,NE,40,0.0,0.0,47,0.00,,---,0.00,VWS V14.01,2013-11-03 00:27:00,
2013-11-02 19:28:00,53.2,33.5,30.18,NE,40,0.0,0.0,47,0.00,,---,0.00,VWS V14.01,2013-11-03 00:28:00,
2013-11-02 19:30:00,52.8,33.2,30.18,NE,40,0.0,0.0,47,0.00,,---,0.00,VWS V14.01,2013-11-03 00:30:00,
2013-11-02 19:33:00,52.2,32.6,30.18,NE,40,0.0,0.0,47,0.00,,---,0.00,VWS V14.01,2013-11-03 00:33:00,
2013-11-02 19:36:00,51.8,32.8,30.18,NE,40,0.0,0.0,48,0.00,,---,0.00,VWS V14.01,2013-11-03 00:36:00,
2013-11-02 19:39:00,51.6,33.1,30.18,NE,40,0.0,0.0,49,0.00,,---,0.00,VWS V14.01,2013-11-03 00:39:00,
2013-11-02 19:42:00,51.4,32.9,30.18,NE,40,0.0,0.0,49,0.00,,---,0.00,VWS V14.01,2013-11-03 00:42:00,
2013-11-02 19:45:00,51.3,32.8,30.19,NE,40,0.0,0.0,49,0.00,,---,0.00,VWS V14.01,2013-11-03 00:45:00,
2013-11-02 19:52:00,51.0,33.5,30.19,NE,40,0.0,0.0,51,0.00,,---,0.00,VWS V14.01,2013-11-03 00:52:00,
2013-11-02 19:55:00,50.9,32.9,30.19,NE,40,0.0,0.0,50,0.00,,---,0.00,VWS V14.01,2013-11-03 00:55:00,
2013-11-02 19:58:00,50.7,32.8,30.19,NE,40,0.0,0.0,50,0.00,,---,0.00,VWS V14.01,2013-11-03 00:58:00,
2013-11-02 20:04:00,50.4,33.0,30.19,NE,40,0.0,0.0,51,0.00,,---,0.00,VWS V14.01,2013-11-03 01:04:00,
2013-11-02 20:10:00,49.3,32.4,30.19,NE,40,0.0,0.0,52,0.00,,---,0.00,VWS V14.01,2013-11-03 01:10:00,
2013-11-02 20:13:00,49.0,32.6,30.19,NE,40,0.0,0.0,53,0.00,,---,0.00,VWS V14.01,2013-11-03 01:13:00,
2013-11-02 20:16:00,48.7,32.8,30.19,NE,40,0.0,0.0,54,0.00,,---,0.00,VWS V14.01,2013-11-03 01:16:00,
2013-11-02 20:19:00,48.5,32.6,30.19,NE,40,0.0,0.0,54,0.00,,---,0.00,VWS V14.01,2013-11-03 01:19:00,
2013-11-02 20:25:00,47.5,32.6,30.19,NE,40,0.0,0.0,56,0.00,,---,0.00,VWS V14.01,2013-11-03 01:25:00,
2013-11-02 20:28:00,47.2,32.8,30.20,NE,40,0.0,0.0,57,0.00,,---,0.00,VWS V14.01,2013-11-03 01:28:00,
2013-11-02 20:31:00,47.0,33.0,30.20,NE,40,0.0,0.0,58,0.00,,---,0.00,VWS V14.01,2013-11-03 01:31:00,
2013-11-02 20:34:00,46.9,32.9,30.20,NE,40,0.0,0.0,58,0.00,,---,0.00,VWS V14.01,2013-11-03 01:34:00,
2013-11-02 20:37:00,46.6,32.6,30.20,NE,40,0.0,0.0,58,0.00,,---,0.00,VWS V14.01,2013-11-03 01:37:00,
2013-11-02 20:40:00,46.4,32.4,30.20,NE,40,0.0,0.0,58,0.00,,---,0.00,VWS V14.01,2013-11-03 01:40:00,
2013-11-02 20:43:00,46.1,32.6,30.20,NE,40,0.0,0.0,59,0.00,,---,0.00,VWS V14.01,2013-11-03 01:43:00,
2013-11-02 20:46:00,45.7,32.6,30.20,NE,40,0.0,0.0,60,0.00,,---,0.00,VWS V14.01,2013-11-03 01:46:00,
2013-11-02 20:49:00,45.5,32.8,30.20,NE,40,0.0,0.0,61,0.00,,---,0.00,VWS V14.01,2013-11-03 01:49:00,
2013-11-02 20:52:00,45.3,32.7,30.20,NE,40,0.0,0.0,61,0.00,,---,0.00,VWS V14.01,2013-11-03 01:52:00,
2013-11-02 20:55:00,45.2,32.6,30.20,NE,40,0.0,0.0,61,0.00,,---,0.00,VWS V14.01,2013-11-03 01:55:00,
2013-11-02 20:58:00,45.0,32.8,30.20,NE,40,0.0,0.0,62,0.00,,---,0.00,VWS V14.01,2013-11-03 01:58:00,
2013-11-02 21:01:00,44.7,32.5,30.20,NE,40,0.0,0.0,62,0.00,,---,0.00,VWS V14.01,2013-11-03 02:01:00,
2013-11-02 21:04:00,44.6,32.4,30.20,NE,40,0.0,0.0,62,0.00,,---,0.00,VWS V14.01,2013-11-03 02:04:00,
2013-11-02 21:07:00,44.4,32.6,30.20,NE,40,0.0,0.0,63,0.00,,---,0.00,VWS V14.01,2013-11-03 02:07:00,
2013-11-02 21:10:00,44.3,32.5,30.20,NE,40,0.0,0.0,63,0.00,,---,0.00,VWS V14.01,2013-11-03 02:10:00,
2013-11-02 21:13:00,44.1,32.3,30.21,NE,40,1.0,2.0,63,0.00,,---,0.00,VWS V14.01,2013-11-03 02:13:00,
2013-11-02 21:16:00,43.9,32.5,30.21,NE,40,0.0,2.0,64,0.00,,---,0.00,VWS V14.01,2013-11-03 02:16:00,
2013-11-02 21:19:00,43.8,32.4,30.21,NE,40,0.0,2.0,64,0.00,,---,0.00,VWS V14.01,2013-11-03 02:19:00,
2013-11-02 21:22:00,43.8,32.4,30.21,NE,40,0.0,2.0,64,0.00,,---,0.00,VWS V14.01,2013-11-03 02:22:00,
2013-11-02 21:25:00,44.0,32.6,30.20,NE,40,0.0,2.0,64,0.00,,---,0.00,VWS V14.01,2013-11-03 02:25:00,
2013-11-02 21:28:00,44.2,32.4,30.20,NE,41,2.0,3.0,63,0.00,,---,0.00,VWS V14.01,2013-11-03 02:28:00,
2013-11-02 21:31:00,44.1,32.7,30.20,SSE,162,1.0,3.0,64,0.00,,---,0.00,VWS V14.01,2013-11-03 02:31:00,
2013-11-02 21:37:00,43.6,32.6,30.20,SSE,162,0.0,3.0,65,0.00,,---,0.00,VWS V14.01,2013-11-03 02:37:00,
2013-11-02 21:40:00,43.5,32.5,30.20,SSE,162,0.0,3.0,65,0.00,,---,0.00,VWS V14.01,2013-11-03 02:40:00,
2013-11-02 21:43:00,43.4,32.4,30.20,SSE,162,0.0,3.0,65,0.00,,---,0.00,VWS V14.01,2013-11-03 02:43:00,
2013-11-02 21:50:00,43.5,32.5,30.20,SSE,162,2.0,3.0,65,0.00,,---,0.00,VWS V14.01,2013-11-03 02:50:00,
2013-11-02 21:53:00,43.7,32.7,30.20,SSE,162,1.0,3.0,65,0.00,,---,0.00,VWS V14.01,2013-11-03 02:53:00,
2013-11-02 21:56:00,43.7,32.7,30.20,SSE,162,1.0,3.0,65,0.00,,---,0.00,VWS V14.01,2013-11-03 02:56:00,
2013-11-02 21:58:00,43.7,32.7,30.20,SSE,162,1.0,3.0,65,0.00,,---,0.00,VWS V14.01,2013-11-03 02:58:00,
2013-11-02 22:02:00,43.4,32.4,30.20,SSE,162,1.0,2.0,65,0.00,,---,0.00,VWS V14.01,2013-11-03 03:02:00,
2013-11-02 22:03:00,45.8,33.1,30.20,SE,137,0.0,1.0,61,0.00,,---,0.00,VWS V14.01,2013-11-03 03:03:00,
2013-11-02 22:05:00,43.1,32.2,30.20,SSE,162,0.0,2.0,65,0.00,,---,0.00,VWS V14.01,2013-11-03 03:05:00,
2013-11-02 22:06:00,45.3,33.1,30.20,SE,137,0.0,1.0,62,0.00,,---,0.00,VWS V14.01,2013-11-03 03:06:00,
2013-11-02 22:08:00,42.9,32.3,30.20,SSE,162,0.0,2.0,66,0.00,,---,0.00,VWS V14.01,2013-11-03 03:08:00,
2013-11-02 22:09:00,44.7,32.5,30.20,SE,137,2.0,2.0,62,0.00,,---,0.00,VWS V14.01,2013-11-03 03:09:00,
2013-11-02 22:11:00,42.7,32.2,30.19,SSE,162,0.0,2.0,66,0.00,,---,0.00,VWS V14.01,2013-11-03 03:11:00,
2013-11-02 22:12:00,44.2,32.8,30.20,SE,137,0.0,2.0,64,0.00,,---,0.00,VWS V14.01,2013-11-03 03:12:00,
2013-11-02 22:14:00,42.8,32.2,30.19,SSE,162,0.0,2.0,66,0.00,,---,0.00,VWS V14.01,2013-11-03 03:14:00,
2013-11-02 22:15:00,43.7,32.7,30.20,SE,137,0.0,2.0,65,0.00,,---,0.00,VWS V14.01,2013-11-03 03:15:00,
2013-11-02 22:17:00,43.0,32.4,30.19,SSE,162,1.0,2.0,66,0.00,,---,0.00,VWS V14.01,2013-11-03 03:17:00,
2013-11-02 22:18:00,43.4,32.4,30.20,SE,137,1.0,2.0,65,0.00,,---,0.00,VWS V14.01,2013-11-03 03:18:00,
2013-11-02 22:20:00,43.0,32.4,30.19,SSE,162,0.0,2.0,66,0.00,,---,0.00,VWS V14.01,2013-11-03 03:20:00,
2013-11-02 22:21:00,43.2,32.6,30.20,SE,137,2.0,3.0,66,0.00,,---,0.00,VWS V14.01,2013-11-03 03:21:00,
2013-11-02 22:23:00,42.9,32.7,30.19,SSE,162,0.0,2.0,67,0.00,,---,0.00,VWS V14.01,2013-11-03 03:23:00,
2013-11-02 22:24:00,43.3,33.1,30.20,SE,137,3.0,3.0,67,0.00,,---,0.00,VWS V14.01,2013-11-03 03:24:00,
2013-11-02 22:26:00,42.9,32.7,30.19,SSE,162,0.0,2.0,67,0.00,,---,0.00,VWS V14.01,2013-11-03 03:26:00,
2013-11-02 22:27:00,43.2,32.6,30.20,SE,137,2.0,3.0,66,0.00,,---,0.00,VWS V14.01,2013-11-03 03:27:00,
2013-11-02 22:28:00,43.1,33.3,30.19,SSE,162,1.0,2.0,68,0.00,,---,0.00,VWS V14.01,2013-11-03 03:28:00,
2013-11-02 22:30:00,43.0,32.4,30.20,SE,137,2.0,3.0,66,0.00,,---,0.00,VWS V14.01,2013-11-03 03:30:00,
2013-11-02 22:32:00,43.8,33.6,30.19,SSE,161,3.0,3.0,67,0.00,,---,0.00,VWS V14.01,2013-11-03 03:32:00,
2013-11-02 22:33:00,42.4,32.2,30.20,SE,137,0.0,3.0,67,0.00,,---,0.00,VWS V14.01,2013-11-03 03:33:00,
2013-11-02 22:35:00,44.7,33.7,30.19,SE,132,2.0,5.0,65,0.00,,---,0.00,VWS V14.01,2013-11-03 03:35:00,
2013-11-02 22:37:00,42.2,32.4,30.20,SE,137,1.0,3.0,68,0.00,,---,0.00,VWS V14.01,2013-11-03 03:37:00,
2013-11-02 22:38:00,45.8,33.9,30.20,SE,136,3.0,6.0,63,0.00,,---,0.00,VWS V14.01,2013-11-03 03:38:00,
2013-11-02 22:40:00,42.4,32.6,30.20,SE,137,0.0,3.0,68,0.00,,---,0.00,VWS V14.01,2013-11-03 03:40:00,
2013-11-02 22:41:00,46.8,34.1,30.19,SE,137,2.0,6.0,61,0.00,,---,0.00,VWS V14.01,2013-11-03 03:41:00,
2013-11-02 22:43:00,42.6,32.8,30.20,SE,137,1.0,3.0,68,0.00,,---,0.00,VWS V14.01,2013-11-03 03:43:00,
2013-11-02 22:44:00,47.4,33.8,30.20,SE,137,2.0,6.0,59,0.00,,---,0.00,VWS V14.01,2013-11-03 03:44:00,
2013-11-02 22:46:00,42.6,32.8,30.20,SE,137,1.0,3.0,68,0.00,,---,0.00,VWS V14.01,2013-11-03 03:46:00,
2013-11-02 22:47:00,47.7,34.1,30.20,SE,137,1.0,6.0,59,0.00,,---,0.00,VWS V14.01,2013-11-03 03:47:00,
2013-11-02 22:49:00,42.5,33.1,30.20,SE,137,2.0,3.0,69,0.00,,---,0.00,VWS V14.01,2013-11-03 03:49:00,
2013-11-02 22:50:00,47.8,33.8,30.20,SE,137,0.0,6.0,58,0.00,,---,0.00,VWS V14.01,2013-11-03 03:50:00,
2013-11-02 22:52:00,42.4,33.0,30.20,SE,137,2.0,3.0,69,0.00,,---,0.00,VWS V14.01,2013-11-03 03:52:00,
2013-11-02 22:53:00,47.3,33.3,30.20,SE,137,1.0,6.0,58,0.00,,---,0.00,VWS V14.01,2013-11-03 03:53:00,
2013-11-02 22:55:00,42.3,33.2,30.20,SE,137,0.0,3.0,70,0.00,,---,0.00,VWS V14.01,2013-11-03 03:55:00,
2013-11-02 22:56:00,46.7,33.2,30.20,SE,137,0.0,6.0,59,0.00,,---,0.00,VWS V14.01,2013-11-03 03:56:00,
2013-11-02 22:58:00,42.2,33.1,30.20,SE,137,1.0,3.0,70,0.00,,---,0.00,VWS V14.01,2013-11-03 03:58:00,
2013-11-02 22:59:00,46.2,33.1,30.20,SE,137,0.0,1.0,60,0.00,,---,0.00,VWS V14.01,2013-11-03 03:59:00,
2013-11-02 23:00:00,42.2,33.1,30.20,SE,137,1.0,3.0,70,0.00,,---,0.00,VWS V14.01,2013-11-03 04:00:00,
2013-11-02 23:01:00,42.2,33.1,30.20,SE,137,1.0,1.0,70,0.00,,---,0.00,VWS V14.01,2013-11-03 04:01:00,
2013-11-02 23:04:00,42.4,33.3,30.19,SE,137,1.0,2.0,70,0.00,,---,0.00,VWS V14.01,2013-11-03 04:04:00,
2013-11-02 23:07:00,42.6,33.2,30.19,SE,137,1.0,2.0,69,0.00,,---,0.00,VWS V14.01,2013-11-03 04:07:00,
2013-11-02 23:10:00,42.5,32.7,30.19,SE,137,1.0,2.0,68,0.00,,---,0.00,VWS V14.01,2013-11-03 04:10:00,
2013-11-02 23:13:00,42.4,32.6,30.19,SE,137,0.0,2.0,68,0.00,,---,0.00,VWS V14.01,2013-11-03 04:13:00,
2013-11-02 23:16:00,42.2,32.8,30.19,SE,137,1.0,2.0,69,0.00,,---,0.00,VWS V14.01,2013-11-03 04:16:00,
2013-11-02 23:19:00,42.0,32.2,30.19,SE,137,0.0,2.0,68,0.00,,---,0.00,VWS V14.01,2013-11-03 04:19:00,
2013-11-02 23:22:00,41.9,32.5,30.19,SE,137,0.0,2.0,69,0.00,,---,0.00,VWS V14.01,2013-11-03 04:22:00,
2013-11-02 23:25:00,41.9,32.8,30.19,SE,137,0.0,2.0,70,0.00,,---,0.00,VWS V14.01,2013-11-03 04:25:00,
2013-11-02 23:28:00,42.0,32.9,30.18,SE,137,1.0,2.0,70,0.00,,---,0.00,VWS V14.01,2013-11-03 04:28:00,
2013-11-02 23:30:00,42.2,33.1,30.18,SE,137,2.0,3.0,70,0.00,,---,0.00,VWS V14.01,2013-11-03 04:30:00,
2013-11-02 23:31:00,42.5,33.4,30.18,SE,137,1.0,2.0,70,0.00,,---,0.00,VWS V14.01,2013-11-03 04:31:00,
2013-11-02 23:34:00,43.2,34.1,30.18,SE,137,2.0,3.0,70,0.00,,---,0.00,VWS V14.01,2013-11-03 04:34:00,
2013-11-02 23:37:00,44.0,34.1,30.18,SE,137,2.0,3.0,68,0.00,,---,0.00,VWS V14.01,2013-11-03 04:37:00,
2013-11-02 23:40:00,44.8,34.2,30.18,SE,137,2.0,3.0,66,0.00,,---,0.00,VWS V14.01,2013-11-03 04:40:00,
2013-11-02 23:43:00,45.4,34.3,30.18,SE,137,1.0,3.0,65,0.00,,---,0.00,VWS V14.01,2013-11-03 04:43:00,
2013-11-02 23:46:00,45.6,34.1,30.18,SE,137,2.0,3.0,64,0.00,,---,0.00,VWS V14.01,2013-11-03 04:46:00,
2013-11-02 23:49:00,45.6,33.8,30.18,SE,137,0.0,3.0,63,0.00,,---,0.00,VWS V14.01,2013-11-03 04:49:00,
2013-11-02 23:52:00,45.4,33.6,30.18,SE,137,0.0,3.0,63,0.00,,---,0.00,VWS V14.01,2013-11-03 04:52:00,
2013-11-02 23:55:00,45.2,33.4,30.18,SE,137,1.0,3.0,63,0.00,,---,0.00,VWS V14.01,2013-11-03 04:55:00,
2013-11-02 23:58:00,45.2,33.8,30.17,SE,137,1.0,3.0,64,0.00,,---,0.00,VWS V14.01,2013-11-03 04:58:00,